Location: Nairn
(57.5833°N, 3.8667°W)
Time: 02:25:00
(UTC+00:00)

UNK - Pass Details

Date: 17 December 2021
Orbit: 666 x 686 km, 98.2° (Epoch: 22 January)

Event Time Altitude Azimuth Distance (km) Brightness Sun altitude
Exits shadow 17:40:49 - 8° (N) 2,891 6.7 -15.6°
Reaches altitude 10° 17:43:42 10° 344° (NNW) 2,108 6.3 -15.9°
Maximum altitude 17:45:53 13° 316° (NW) 1,882 6.3 -16.2°
Drops below altitude 10° 17:48:03 10° 287° (WNW) 2,101 7.1 -16.5°
Sets 17:51:21 0° 262° (W) 3,010 8.8 -16.9°
